Regional Weather Roundup
Issued by NWS Portland, ME

Current Version | Previous Version | Text Only | Print | Product List | Glossary Off
Versions: 1 2 3 4 5 6 7 8 9 10 11 12 13 14 15 16 17 18 19 20 21 22 23 24 25 26 27 28 29 30 31 32 33 34 35 36 37 38 39 40 41 42 43 44 45 46 47 48 49 50
000 ASUS41 KGYX 201305 RWRGYX WEATHER ROUNDUP FOR MAINE AND NEW HAMPSHIRE NATIONAL WEATHER SERVICE GRAY ME 900 AM EDT THU JUN 20 2019 MEZ002-005-006-010-012-015-018-020-021-024-026-027-029-201400- MAINE CITY SKY/WX TMP DP RH WIND PRES REMARKS PORTLAND FOG 58 57 97 E5 29.75S VSB 1/4 SANFORD CLOUDY 60 60 100 E3 29.74F BAR HARBOR CLOUDY 57 57 100 E5 29.78F WISCASSET CLOUDY 57 56 96 SE5 29.77S FOG ROCKLAND FOG 55 55 100 E3 29.77S VSB 1/4 FRYEBURG CLOUDY 62 59 90 E5 29.73F LEWISTONAUBURN CLOUDY 59 58 96 S5 29.75S FOG AUGUSTA CLOUDY 59 59 100 VRB3 29.76R FOG WATERVILLE CLOUDY 60 59 96 CALM 29.72F BANGOR CLOUDY 62 58 86 SE10 29.75F GREENVILLE N/A 57 56 96 SE6 29.73F MILLINOCKET CLOUDY 61 57 87 S5 29.76F HOULTON CLOUDY 57 55 93 VRB6 29.77R FOG PRESQUE ISLE CLOUDY 59 56 89 S6 29.77F FRENCHVILLE CLOUDY 61 56 83 SE5 29.75F CARIBOU CLOUDY 59 57 93 S5 29.75F $$ NHZ002-005-008-009-011-012-014-201400- NEW HAMPSHIRE CITY SKY/WX TMP DP RH WIND PRES REMARKS PORTSMOUTH CLOUDY 60 60 100 E5 29.71F FOG ROCHESTER FOG 61 60 97 SE5 29.72F VSB 1/4 NASHUA LGT RAIN 65 65 100 SE6 29.70F FOG MANCHESTER RAIN 66 65 96 E5 29.68F FOG CONCORD CLOUDY 64 63 96 E6 29.70F FOG LACONIA CLOUDY 65 62 90 NE3 29.71F PLYMOUTH CLOUDY 65 62 93 CALM 29.70F BERLIN PTSUNNY 68 62 81 CALM 29.71F WHITEFIELD FAIR 67 61 81 CALM 29.69F JAFFREY CLOUDY 66 63 90 CALM 29.71S KEENE LGT RAIN 66 65 96 CALM 29.68F FOG LEBANON CLOUDY 70 63 78 CALM 29.66F MT WASHINGTON FOG 52 52 100 S12 N/A VSB 1/4 $$ VTZ005-007-008-201400- VERMONT CITY SKY/WX TMP DP RH WIND PRES REMARKS ST JOHNSBURY N/A 67 65 93 MISG 29.66F MONTPELIER CLOUDY 67 64 90 SE6 29.71F BURLINGTON CLOUDY 70 64 81 SE6 29.63F $$ MAZ007-012-024-CTZ003-RIZ002-NYZ038-NYZ072-201400- SOUTHERN NEW ENGLAND AND NY CITY SKY/WX TMP DP RH WIND PRES REMARKS BOSTON LGT RAIN 62 59 90 E7 29.71F VSB 1/2 WORCESTER LGT RAIN 63 63 100 E5 29.71F VSB<1/4 NANTUCKET CLOUDY 63 62 97 SE5 29.73S PROVIDENCE LGT RAIN 63 63 100 SE3 29.70F FOG HARTFORD CLOUDY 67 64 90 CALM 29.67S FOG ALBANY CLOUDY 71 65 81 S9 29.62F NEW YORK CITY FOG 64 64 100 NE6 29.63F VSB 1/4 $$ ANZ081-ANZ082-ANZ150-NHZ014-MEZ023>029-201400- COASTAL MARINE OBSERVATIONS STATION/POSITION TIME TEMP WIND PRES WAVE AIR SEA DIR/SP/G HT/PER (UTC) (F) (DEG/KT/KT) (MB) (FT/S) ISLE OF SHOALS 1200 57 130/ 6/ 7 1006.4F JEFFREYS LEDGE 1208 58 N/A 2/ 7 CASHES LEDGE BUO 1150 54 53 140/ 6/ 8 1008.2 2/ 7 GEORGES BANK BUO 1240 54 51 60/ 6/ 8 1007.9F $$ .............KEY.............. WCI - WIND CHILL TC - TEMPERATURE IN CELSIUS VSB - VISIBILITY IN MILES HX - HEAT INDEX FAIR- INDICATES FEW OR NO CLOUDS BELOW 12,000 FT, WITH NO SIGNIFICANT WEATHER AND/OR OBSTRUCTIONS TO VISIBILITY.

USA.gov is the U.S. government's official web portal to all federal, state and local government web resources and services.